www.pogodaiklimat.ru

Погода и климат >> Архив погоды >> Хорватия >> Огулин


ПОГОДА в Огулине

  • Прогноз погоды в Огулине
  • Монитор погоды в Огулине

АРХИВ ПОГОДЫ в Огулине

Время (UTC), дата Ветер
(напр.,м/с)
 
Видим.   Явления Облачность Т
(С)
Тd
(С)
f
(%)
Тe
(С)
Тes
(С)
Комфортность P
(гПа)
Po
(гПа)
Тmin
(С)
Tmax
(С)
R
(мм)
R24
(мм)
S
(см)
04 14.05 штиль 0 н/о н/о +5.4 +4.7 95 +4 +4 1024.4 984.1
05 14.05 СЗ 1 н/о н/о +5.6 +5.1 97 +4 +4 1024.2 984.0
06 14.05 штиль 0 10 км {дождь} 10/10 1000 м
[Sc]
+6.2 +5.4 95 +5 +5 1023.3 983.3 +5.3 10
07 14.05 ЮВ 1 10 км 10/10 1000 м
[Sc]
+7.6 +6.4 92 +7 +7 1023.0 983.3
08 14.05 СВ 1 15 км 10/10 1000 м
[Sc]
+9.0 +4.1 71 +9 +9 1022.9 983.3
09 14.05 СВ 3 20 км 10/8 1000 м
[Sc Ac As]
+8.2 +1.4 62 +6 +7 1023.0 983.3
10 14.05 СВ 3 20 км 10/8 1000 м
[Sc Ac As]
+7.3 +1.3 66 +5 +6 1023.1 983.3
11 14.05 СВ 2 15 км 10/8 1000 м
[Sc Ac As]
+7.6 +0.9 62 +6 +7 1023.0 983.2
12 14.05 С 3 15 км 10/8 600 м
[Sc Ac As]
+6.6 +2.2 73 +4 +5 1023.0 983.1
13 14.05 С 2 15 км 10/5 600 м
[Cu Sc Ac As]
+6.3 +2.1 74 +4 +6 1022.5 982.6
14 14.05 С 3 н/о н/о +7.1 +1.9 69 +4 +4 1021.9 982.0
15 14.05 С 3 н/о н/о +6.7 +1.3 68 +4 +4 1021.4 981.4
16 14.05 С 2 н/о н/о +6.4 +1.6 71 +4 +4 1021.1 981.1
17 14.05 СЗ 2 н/о н/о +6.1 +2.6 78 +4 +4 1020.6 980.6
18 14.05 СЗ 2 20 км {дождь} 10/10 1000 м
[Sc]
+5.6 +2.8 82 +3 +3 1020.5 980.5 +9.0 0.1
19 14.05 З 1 15 км 10/10 1000 м
[Sc]
+5.4 +2.3 80 +4 +4 1020.4 980.4
20 14.05 С 1 15 км 10/10 1000 м
[Sc]
+5.2 +2.6 83 +4 +4 1020.1 980.1
21 14.05 штиль 0 н/о н/о +4.8 +3.4 91 +4 +4 1019.7 979.5
00 15.05 СЗ 1 н/о н/о +4.6 +3.6 93 +3 +3 1018.3 978.2
03 15.05 З 1 н/о н/о +4.3 +3.6 95 +3 +3 1016.7 976.6
04 15.05 СЗ 1 н/о н/о +4.5 +3.5 93 +3 +3 1016.6 976.5
05 15.05 СЗ 2 н/о н/о +4.5 +3.8 95 +2 +2 1016.5 976.4
06 15.05 СВ 2 4000 м слаб. дождь 10/9 300 м
[Frnb As op]
+4.6 +4.0 96 +2 +2 1016.6 976.7 +4.2 3
07 15.05 С 1 6000 м в посл. час дождь 10/10 200 м
[Sc]
+5.2 +4.6 96 +4 +4 1016.5 976.7
08 15.05 СВ 2 4000 м слаб. дождь 10/9 200 м
[Frnb As op]
+5.4 +4.6 95 +3 +3 1016.5 976.7
09 15.05 СВ 2 6000 м в посл. час дождь 10/10 300 м
[Sc]
+5.6 +4.3 91 +3 +3 1016.5 976.7
10 15.05 СВ 1 8000 м дымка 10/10 300 м
[Sc]
+6.4 +4.7 89 +5 +5 1016.4 976.7
11 15.05 С 2 15 км 10/10 600 м
[Sc]
+7.1 +4.4 83 +5 +5 1016.2 976.6
12 15.05 СВ 1 20 км {дождь} 10/10 600 м
[Sc]
+7.3 +4.4 82 +6 +6 1016.1 976.6 0.1
13 15.05 В 1 20 км 10/10 600 м
[Sc]
+7.5 +4.2 80 +7 +7 1016.1 976.6
14 15.05 штиль 0 н/о н/о +7.8 +5.0 82 +7 +7 1016.5 976.9
15 15.05 С 1 н/о н/о +7.6 +4.6 81 +7 +7 1016.8 977.1
16 15.05 СВ 1 н/о н/о +7.6 +4.3 80 +7 +7 1016.8 977.1
18 15.05 СЗ 1 10 км слаб. дождь 10/9 600 м
[Sc As op]
+6.5 +4.4 86 +5 +5 1017.1 977.4 +7.6 0.2
19 15.05 СЗ 1 10 км слаб. дождь 10/9 600 м
[Sc As op]
+6.0 +5.0 93 +5 +5 1017.2 977.4
20 15.05 СЗ 1 10 км слаб. дождь 10/9 600 м
[Frnb As op]
+5.8 +5.2 96 +4 +4 1017.2 977.4
04 16.05 СЗ 1 н/о н/о +5.7 +5.2 97 +4 +4 1015.8 975.9
05 16.05 штиль 0 н/о н/о +6.1 +5.4 95 +5 +5 1016.0 976.2
06 16.05 СЗ 1 1000 м слаб. дождь 10/9 300 м
[Sc As op]
+6.5 +5.9 96 +5 +5 1016.1 976.5 +5.6 0.9
07 16.05 СЗ 1 2000 м в посл. час дождь 10/10 300 м
[Sc]
+7.1 +6.1 93 +6 +6 1016.2 976.6
08 16.05 СВ 1 6000 м дымка 10/10 300 м
[Sc]
+8.1 +6.1 87 +7 +7 1015.7 976.3
09 16.05 В 1 8000 м дымка {дождь} 10/10 300 м
[Cu Sc]
+8.8 +6.0 83 +8 +8 1015.5 976.2
10 16.05 ЮВ 1 10 км 10/10 600 м
[Cu Sc]
+8.8 +5.8 81 +8 +8 1015.2 975.9
11 16.05 СЗ 1 10 км 10/10 600 м
[Cu Sc]
+9.4 +5.6 77 +9 +9 1015.0 975.8
12 16.05 СВ 2 15 км {дождь} 10/10 600 м
[Cu Sc]
+9.8 +6.5 80 +8 +8 1014.6 975.5 0.0
13 16.05 СЗ 1 15 км 10/10 600 м
[Cu Sc]
+10.4 +6.5 77 +10 +10 1014.2 975.2
14 16.05 СВ 2 н/о н/о +10.7 +6.1 73 +9 +9 1013.9 974.8
15 16.05 В 2 н/о н/о +10.1 +6.7 79 +9 +9 1014.0 974.8
16 16.05 Ю 1 н/о н/о +9.9 +6.9 82 +9 +9 1013.8 974.6
17 16.05 ЮЗ 1 н/о н/о +9.7 +7.2 84 +9 +9 1013.9 974.6
18 16.05 штиль 0 10 км 10/10 600 м
[Sc]
+9.4 +7.3 87 +9 +9 1014.1 975.0 +11.3 0.0
19 16.05 СВ 1 10 км 10/10 600 м
[Sc]
+9.1 +7.4 89 +8 +8 1014.4 975.2
20 16.05 З 1 10 км 10/10 600 м
[Sc]
+8.8 +7.4 91 +8 +8 1014.6 975.4
21 16.05 штиль 0 н/о н/о +8.6 +7.4 92 +8 +8 1014.5 975.1
00 17.05 З 1 н/о н/о +7.3 +6.5 95 +6 +6 1014.0 974.4
03 17.05 СЗ 1 н/о н/о +7.2 +6.4 95 +6 +6 1013.2 973.6
04 17.05 СЗ 1 н/о н/о +7.3 +6.5 95 +6 +6 1013.5 973.9
05 17.05 штиль 0 н/о н/о +7.9 +6.7 92 +7 +7 1013.5 974.0
06 17.05 штиль 0 4000 м дымка 10/10 300 м
[Sc]
+8.6 +6.6 87 +8 +8 1013.3 974.1 +7.0
07 17.05 ЮВ 1 8000 м дымка 10/10 600 м
[Sc]
+9.4 +6.7 83 +9 +9 1013.6 974.5
08 17.05 Ю 1 10 км 10/10 600 м
[Sc]
+10.0 +6.5 79 +10 +10 1013.4 974.4
09 17.05 ЮВ 1 15 км 10/10 300 м
[Sc]
+10.2 +6.5 78 +10 +10 1013.3 974.3
10 17.05 В 1 15 км 10/10 600 м
[Cu med, cong]
+11.7 +6.5 70 +12 +12 1012.8 974.0
11 17.05 В 2 15 км 10/10 600 м
[Cu med, cong]
+12.6 +7.0 69 +12 +12 1012.6 973.9
12 17.05 В 1 15 км 9/9 600 м
[Cu med, cong]
+12.9 +7.1 68 +13 +15 1012.2 973.6
13 17.05 С 1 20 км 8/8 600 м
[Cu Sc]
+14.4 +8.0 65 +15 +18 1011.6 973.2
14 17.05 СВ 2 н/о н/о +14.7 +7.6 62 +14 +14 1011.5 973.0
15 17.05 СВ 2 н/о н/о +14.7 +8.0 64 +14 +14 1011.4 972.9
16 17.05 ЮВ 2 н/о н/о +13.6 +8.3 70 +13 +13 1011.3 972.7
17 17.05 ЮВ 2 н/о н/о +13.1 +8.0 71 +12 +12 1011.3 972.6
18 17.05 З 1 15 км 9/8 600 м
[Cu Sc Ci fib]
+13.1 +8.1 72 +13 +13 1011.2 972.7 +15.0
19 17.05 С 1 15 км 9/9 600 м
[Cu Sc]
+11.8 +9.3 85 +12 +12 1011.5 972.8
20 17.05 штиль 0 15 км 9/9 600 м
[Cu Sc]
+11.1 +9.3 89 +10 +10 1011.9 973.1
21 17.05 З 1 н/о н/о +10.6 +8.9 89 +10 +10 1012.2 973.1
00 18.05 н/о +9.0 1011.4 972.3
03 18.05 н/о +9.2 1010.2 971.1
04 18.05 н/о +9.1 1010.3 971.2
05 18.05 СЗ 1 н/о н/о +10.4 +9.2 92 +10 +10 1010.2 971.2
06 18.05 Ю 1 10 км 10/10 600 м
[Sc]
+11.4 +9.6 89 +11 +11 1010.0 971.3 +9.8
07 18.05 СВ 1 10 км 10/10 600 м
[Sc]
+12.6 +9.2 80 +13 +13 1010.1 971.6
08 18.05 СВ 2 10 км 9/9 600 м
[Sc]
+13.3 +9.9 80 +13 +14 1010.0 971.6
09 18.05 СВ 2 10 км 9/9 600 м
[Cu Sc]
+14.3 +10.1 76 +14 +15 1009.5 971.2
10 18.05 СВ 2 10 км 10/10 600 м
[Cu Sc]
+14.1 +10.4 78 +14 +14 1009.4 971.1
11 18.05 СВ 2 10 км 10/10 600 м
[Cu Sc]
+14.9 +9.6 71 +15 +15 1009.3 971.1
12 18.05 СВ 1 10 км слаб. дождь 10/9 300 м
[Frnb As op]
+14.6 +10.0 74 +15 +15 1009.1 970.9 0.2
13 18.05 ЮЗ 1 10 км в посл. час дождь 10/10 300 м
[Sc]
+14.3 +11.7 84 +15 +15 1009.1 970.8
14 18.05 СЗ 1 н/о н/о +13.3 +11.8 91 +13 +13 1008.9 970.3
15 18.05 З 1 н/о н/о +14.3 +12.6 90 +15 +15 1008.3 969.9
16 18.05 З 1 н/о н/о +13.9 +12.4 91 +14 +14 1008.5 970.0
17 18.05 СЗ 1 н/о н/о +13.4 +12.2 92 +14 +14 1008.3 969.7
18 18.05 штиль 0 10 км в посл. час дождь 9/9 300 м
[Sc]
+13.3 +12.6 96 +13 +13 1008.2 969.9 +14.9 6
19 18.05 С 1 10 км 9/9 1000 м
[Sc]
+12.8 +12.3 97 +13 +13 1008.3 969.9
20 18.05 СЗ 1 10 км 10/10 1000 м
[Sc]
+12.4 +11.9 97 +12 +12 1008.6 970.1
21 18.05 штиль 0 н/о н/о +12.4 +12.0 97 +12 +12 1009.3 970.6
00 19.05 З 1 н/о н/о +11.5 +11.1 97 +11 +11 1008.5 969.7
03 19.05 З 1 н/о н/о +10.3 +10.1 99 +10 +10 1007.2 968.3
04 19.05 СЗ 2 н/о н/о +10.2 +10.1 99 +9 +9 1007.2 968.3
05 19.05 З 1 н/о н/о +10.3 +10.2 99 +10 +10 1007.1 968.2
06 19.05 СЗ 1 10 км 9/9 1000 м
[Sc]
+11.3 +10.9 97 +11 +11 1006.6 968.0 +9.5 0.1
07 19.05 ЮВ 1 10 км 9/9 300 м
[Cu Sc]
+14.3 +12.6 90 +15 +16 1006.0 967.9
08 19.05 СВ 1 10 км 9/9 300 м
[Cu Sc]
+15.2 +11.4 78 +16 +17 1005.7 967.7
09 19.05 В 2 10 км 9/9 600 м
[Cu Sc]
+16.7 +12.0 74 +17 +18 1005.3 967.5
10 19.05 В 1 10 км 10/10 300 м
[Cu Sc]
+15.4 +11.8 79 +16 +16 1005.5 967.5
11 19.05 СВ 3 10 км 9/9 600 м
[Cu Sc]
+17.0 +12.5 75 +17 +18 1004.9 967.2
12 19.05 СВ 3 10 км 9/9 600 м
[Cu Sc]
+17.1 +12.6 75 +17 +18 1004.6 966.9
13 19.05 СВ 1 10 км гроза, ливневой дождь 10/9 600 м
[Cb cap As op]
+13.6 +11.5 87 +14 +14 1005.3 967.1
14 19.05 штиль 0 н/о н/о +15.9 +10.9 72 +16 +16 1005.1 967.0
15 19.05 З 2 н/о н/о +15.5 +11.2 76 +15 +15 1004.4 966.3
16 19.05 штиль 0 н/о н/о +16.6 +12.0 74 +17 +17 1004.1 966.1
17 19.05 штиль 0 н/о н/о +16.1 +11.9 76 +16 +16 1004.0 966.0
18 19.05 штиль 0 10 км в посл. час дождь {гроза} 10/10 1000 м
[Sc]
+14.8 +13.1 90 +14 +14 1004.1 966.1 +17.1 4
19 19.05 З 1 10 км в посл. час дождь 10/10 1000 м
[Sc]
+13.8 +12.4 91 +14 +14 1004.2 966.1
20 19.05 СЗ 1 10 км 8/8 1000 м
[Sc]
+12.8 +11.7 93 +13 +13 1004.3 966.0
21 19.05 С 1 н/о н/о +12.1 +11.2 94 +12 +12 1005.0 966.4
00 20.05 СЗ 1 н/о н/о +11.4 +10.5 94 +11 +11 1004.9 966.2
03 20.05 штиль 0 н/о н/о +11.1 +10.7 97 +10 +10 1004.1 965.4
04 20.05 Ю 1 н/о н/о +11.5 +9.8 89 +11 +11 1003.7 965.1
05 20.05 Ю 1 н/о н/о +11.5 +10.5 94 +11 +11 1004.0 965.4
06 20.05 ЮВ 2 15 км в посл. час дождь 9/8 600 м
[Cu Sc Ac trans]
+13.6 +9.9 78 +13 +14 1004.1 965.9 +11.0 1
07 20.05 ЮЗ 2 15 км 9/9 600 м
[Cu Sc]
+13.6 +10.6 82 +13 +14 1004.9 966.7
08 20.05 ЮВ 1 15 км слаб. дождь 10/9 600 м
[Cu Sc As op]
+13.3 +10.7 84 +13 +14 1005.4 967.1
09 20.05 Ю 2 15 км слаб. дождь 9/8 600 м
[Cu Sc As op]
+13.8 +11.0 83 +13 +15 1005.8 967.6
10 20.05 Ю 2 15 км слаб. дождь 10/9 600 м
[Cu Sc As op]
+13.8 +10.7 82 +13 +14 1006.4 968.2
11 20.05 Ю 3 15 км в посл. час дождь 9/9 600 м
[Cu Sc]
+14.3 +10.5 78 +13 +15 1006.8 968.6
12 20.05 Ю 2 20 км {дождь} 9/8 600 м
[Cu Sc Ac As]
+14.2 +9.2 72 +14 +16 1007.1 968.9 0.9
13 20.05 ЮЗ 3 20 км 9/8 600 м
[Cu Sc Ac As]
+15.0 +9.1 68 +14 +16 1007.0 968.9
14 20.05 ЮЗ 2 н/о н/о +15.6 +7.7 59 +16 +16 1007.1 968.9
15 20.05 Ю 3 н/о н/о +16.4 +8.4 59 +16 +16 1007.0 968.9
16 20.05 Ю 3 н/о н/о +17.1 +8.6 57 +17 +17 1006.9 968.9
17 20.05 ЮЗ 2 н/о н/о +15.9 +7.5 57 +16 +16 1007.1 968.9
18 20.05 ЮЗ 2 20 км 8/8 600 м
[Cu Sc]
+14.3 +7.7 64 +14 +14 1007.2 969.0 +17.3 0.9
19 20.05 Ю 2 20 км 8/8 600 м
[Cu Sc]
+13.8 +7.9 68 +13 +13 1007.3 969.0
20 20.05 ЮВ 1 15 км 8/8 600 м
[Cu Sc]
+13.8 +8.2 69 +14 +14 1007.4 969.1
21 20.05 ЮВ 1 н/о н/о +14.0 +6.2 59 +14 +14 1007.8 969.3
00 21.05 Ю 2 н/о н/о +14.0 +7.6 65 +14 +14 1007.4 969.0

 

Местоположение метеостанции Огулин (Хорватия): широта 45.27 долгота 15.23 высота над уровнем моря 328 м.

В архиве по умолчанию представлена погода в Огулине за последнюю неделю. Архивные данные за месяц целиком и за предыдущие месяцы, начиная с января 2011 года, Вы можете получить, выбрав интересующий диапазон дат из раскрывающегося списка и нажав кнопку "Ввод!".


*Определитесь, кто Вы:
робот инопланетянин человек

Внимание! Время в таблицах - всемирное. Для получения местного времени необходимо прибавить поправку, которая равна 1 ч.

Смотрите также архив погоды в соседних городах и на ближайших метеорологических станциях:

Погода в Чрномеле (Словения) (34 км)
Погода в Карловаце (Хорватия) (37 км)
Погода в Сене (Хорватия) (40 км)
Погода в Риека аэропорту (Хорватия) (51 км)
Погода в Кочевье (Словения) (52 км)
Погода в Завизани (Хорватия) (54 км)
Погода в Ново-Месте (Словения) (59 км)
Погода в Парке (Хорватия) (60 км)
Погода в Риеке (Хорватия) (61 км)
Погода в Рабе (Хорватия) (68 км)

Пояснения к столбцам:

Ветер - указаны скорость ветра в м/с - средняя за 10 мин, порывы в срок и между сроками (в фигурных скобках) и направление, откуда дует ветер: С - северный, СВ - северо-восточный, В - восточный, ЮВ - юго-восточный, Ю - южный, ЮЗ - юго-западный, З - западный, СЗ - северо-западный.
Видимость - горизонтальная дальность видимости в метрах или километрах. При видимости от 1 до 10 км при отсутствии осадков обычно наблюдается дымка, при ухудшении видимости до 1 км и менее - туман. В сухую погоду видимость может ухудшаться дымом, пылью или мглою.
Явления - указаны атмосферные явления, наблюдавшиеся в срок или в последний час перед сроком; фигурными скобками обозначены явления, наблюдавшиеся между сроками (за 1-3 часа до срока); квадратными скобками обозначены град или гололедные отложения с указанием их диаметра в мм.
Облачность - указаны через наклонную черту общая и нижняя облачность в баллах и высота нижней границы облаков в метрах; квадратными скобками обозначены формы облаков: Ci - перистые, Cs - перисто-слоистые, Cc - перисто-кучевые, Ac - высококучевые, As - высокослоистые, Sc - слоисто-кучевые, Ns - слоисто-дождевые, Cu - кучевые, Cb - кучево-дождевые. Подробнее классификацию облаков см. в Атласе облаков (PDF).
T - Температура воздуха - температура, измеренная на высоте 2 м над землей.
Td - Температура точки росы - температура, при понижении до которой содержащийся в воздухе водяной пар достигнет насыщения.
f - Относительная влажность воздуха - влажноcть воздуха, измеренная на высоте 2 м над землей.
Te - Эффективная температура - температура, которую ощущает одетый по сезону человек в тени. Характеристика душности погоды. При расчете учитывается влияние влажности воздуха и скорости ветра на теплоощущения человека.
Tes - Эффективная температура на солнце - температура, которую ощущает человек, с поправкой на солнечный нагрев. Характеристика знойности погоды. Зависит от высоты солнца над горизонтом, облачности и скорости ветра. Ночью, в пасмурную погоду, а также при ветре 12 м/с и более поправка равна нулю.
P - Атмосферное давление - приведенное к уровню моря атмосферное давление.
Po - Атмосферное давление - измеренное на уровне метеостанции атмосферное давление.
Tmin - Минимальная температура - минимум температуры воздуха на высоте 2 м над землей.
Tmax - Максимальная температура - максимум температуры воздуха на высоте 2 м над землей.
R - Количество осадков - Количество выпавших осадков за период времени, мм. При наведении курсора мыши на число - период времени, за который выпало указанное количество осадков.
R24 - Количество осадков - Количество выпавших осадков за 24 часа, мм.
S - Снежный покров - Высота снежного покрова, см. При наведении курсора мыши на число - состояние снежного покрова и степень покрытия местности в баллах.